Location: Unspecified
(0.0000°N, 0.0000°E)
Time: 18:53:03
(UTC+00:00)

Vanguard 2 Rocket - Pass Details

Date: 28 November 2019
Orbit: 554 x 3326 km, 32.9° (Epoch: 05 December)

Event Time Altitude Azimuth Distance (km) Brightness Sun altitude
Rises 09:19:33 0° 260° (W) 5,276 10.5 48.0°
Reaches altitude 10° 09:23:34 10° 247° (WSW) 4,693 10.4 48.9°
Maximum altitude 09:34:33 26° 197° (SSW) 4,419 10.9 51.1°
Drops below altitude 10° 09:49:08 10° 148° (SSE) 6,233 11.9 54.1°
Sets 09:55:54 0° 136° (SE) 7,316 12.0 55.4°
